{"data":{"norad_id":82164,"epoch":"2026-05-16T10:47:21.056064Z","epoch_age_seconds":820951,"freshness":"AGED","line1":"1 82164U          26136.44954926  .00001131  00000+0  33123-3 0  9992","line2":"2 82164  99.2874 352.7077 0063625  99.4002  19.5457 14.44972775100247","mean_motion":14.44972775,"eccentricity":0.0063625,"inclination_deg":99.2874,"raan_deg":352.7077,"arg_perigee_deg":99.4002,"mean_anomaly_deg":19.5457,"bstar":0.00033123,"rev_number":10024,"period_min":99.655856837856,"perigee_km":696.81294776448,"apogee_km":787.41816152231,"semimajor_km":7120.2525546434,"source":"CELESTRAK","updated_at":"2026-05-25T13:38:11.182908Z"}}